• In Hungary
  • List of Countries
  • For 7 days
  • Water Temperature
  • Satellite Maps
  • Weather Map
  • News
  • Weather Widgets
  • user-avatar
    Login

    Hourly Weather Wachow

    Today, 21 September, Friday

    Time Temperature Precipitation Wind Pressure Humidity
    00:00 +19°C° 0 mm 3 mps 740 mmHg 67%
    01:00 +19°C° 0 mm 3 mps 740 mmHg 69%
    02:00 +18°C° 0 mm 3 mps 740 mmHg 70%
    03:00 +18°C° 0 mm 3 mps 739 mmHg 71%
    04:00 +17°C° 0 mm 3 mps 739 mmHg 72%
    05:00 +18°C° 0 mm 3 mps 739 mmHg 70%
    06:00 +18°C° 0 mm 3 mps 739 mmHg 68%
    07:00 +18°C° 0 mm 3 mps 739 mmHg 67%
    08:00 +20°C° 0 mm 4 mps 739 mmHg 60%
    09:00 +23°C° 0 mm 5 mps 738 mmHg 53%
    10:00 +26°C° 0 mm 5 mps 738 mmHg 45%
    11:00 +26°C° 0 mm 6 mps 738 mmHg 42%
    12:00 +27°C° 0 mm 6 mps 737 mmHg 39%
    13:00 +28°C° 0 mm 6 mps 737 mmHg 36%
    14:00 +28°C° 0 mm 6 mps 736 mmHg 38%
    15:00 +27°C° 0 mm 6 mps 736 mmHg 40%
    16:00 +27°C° 0 mm 5 mps 735 mmHg 42%
    17:00 +26°C° 0 mm 5 mps 735 mmHg 46%
    18:00 +23°C° 0 mm 5 mps 735 mmHg 49%
    19:00 +22°C° 0 mm 5 mps 734 mmHg 52%
    20:00 +22°C° 0.1 mm 5 mps 735 mmHg 54%
    21:00 +22°C° 0.1 mm 5 mps 735 mmHg 55%
    22:00 +22°C° 0.1 mm 5 mps 735 mmHg 57%
    23:00 +20°C° 0.7 mm 6 mps 736 mmHg 65%

    Tomorrow, 22 September, Saturday

    Time Temperature Precipitation Wind Pressure Humidity
    00:00 +17°C° 0.7 mm 7 mps 736 mmHg 73%
    01:00 +15°C° 0.7 mm 8 mps 737 mmHg 81%
    02:00 +14°C° 0.6 mm 6 mps 738 mmHg 80%
    03:00 +14°C° 0.6 mm 5 mps 738 mmHg 79%
    04:00 +13°C° 0.6 mm 4 mps 739 mmHg 78%
    05:00 +13°C° 0 mm 4 mps 740 mmHg 75%
    06:00 +13°C° 0 mm 3 mps 740 mmHg 72%
    07:00 +12°C° 0 mm 3 mps 740 mmHg 69%
    08:00 +13°C° 0 mm 4 mps 741 mmHg 63%
    09:00 +14°C° 0 mm 4 mps 741 mmHg 57%
    10:00 +15°C° 0 mm 5 mps 741 mmHg 51%
    11:00 +16°C° 0 mm 5 mps 741 mmHg 48%
    12:00 +17°C° 0 mm 6 mps 741 mmHg 46%
    13:00 +17°C° 0 mm 6 mps 740 mmHg 43%
    14:00 +17°C° 0 mm 5 mps 740 mmHg 44%
    15:00 +17°C° 0 mm 5 mps 740 mmHg 44%
    16:00 +16°C° 0 mm 5 mps 740 mmHg 45%
    17:00 +15°C° 0 mm 4 mps 740 mmHg 48%
    18:00 +16°C° 0 mm 3 mps 741 mmHg 50%
    19:00 +14°C° 0 mm 3 mps 741 mmHg 52%
    20:00 +13°C° 0 mm 3 mps 741 mmHg 55%
    21:00 +13°C° 0 mm 3 mps 741 mmHg 57%
    22:00 +12°C° 0 mm 3 mps 741 mmHg 60%
    23:00 +12°C° 0 mm 3 mps 741 mmHg 61%

    Day after tomorrow, 23 September, Sunday

    Time Temperature Precipitation Wind Pressure Humidity
    00:00 +11°C° 0 mm 3 mps 741 mmHg 63%
    01:00 +11°C° 0 mm 3 mps 741 mmHg 65%
    02:00 +11°C° 0 mm 3 mps 741 mmHg 64%
    03:00 +11°C° 0 mm 3 mps 741 mmHg 63%
    04:00 +11°C° 0 mm 3 mps 741 mmHg 63%
    05:00 +11°C° 0 mm 3 mps 741 mmHg 64%
    06:00 +11°C° 0 mm 3 mps 741 mmHg 66%
    07:00 +11°C° 0 mm 4 mps 741 mmHg 67%
    08:00 +13°C° 0 mm 4 mps 741 mmHg 64%
    09:00 +14°C° 0 mm 4 mps 741 mmHg 61%
    10:00 +15°C° 0 mm 5 mps 741 mmHg 57%
    11:00 +15°C° 0.1 mm 5 mps 741 mmHg 56%
    12:00 +17°C° 0.1 mm 4 mps 740 mmHg 54%
    13:00 +17°C° 0.1 mm 4 mps 740 mmHg 53%
    14:00 +15°C° 0.1 mm 4 mps 740 mmHg 57%
    15:00 +16°C° 0.1 mm 3 mps 739 mmHg 61%
    16:00 +14°C° 0.1 mm 3 mps 739 mmHg 65%
    17:00 +14°C° 0.2 mm 3 mps 738 mmHg 70%
    18:00 +13°C° 0.2 mm 3 mps 738 mmHg 75%
    19:00 +12°C° 0.2 mm 3 mps 737 mmHg 80%
    20:00 +12°C° 0.4 mm 3 mps 736 mmHg 81%
    21:00 +12°C° 0.4 mm 4 mps 734 mmHg 82%
    22:00 +12°C° 0.4 mm 5 mps 733 mmHg 83%
    23:00 +12°C° 4.4 mm 7 mps 731 mmHg 84%

    24 September, Monday

    Time Temperature Precipitation Wind Pressure Humidity
    00:00 +13°C° 4.4 mm 8 mps 729 mmHg 85%
    01:00 +13°C° 4.4 mm 9 mps 728 mmHg 86%
    02:00 +15°C° 1.6 mm 9 mps 727 mmHg 86%
    03:00 +15°C° 1.6 mm 9 mps 727 mmHg 86%
    04:00 +15°C° 1.6 mm 9 mps 726 mmHg 86%
    05:00 +12°C° 0.5 mm 9 mps 728 mmHg 85%
    06:00 +9°C° 0.5 mm 10 mps 730 mmHg 84%
    07:00 +7°C° 0.5 mm 10 mps 732 mmHg 83%
    08:00 +7°C° 0.2 mm 10 mps 734 mmHg 81%
    09:00 +8°C° 0.2 mm 10 mps 736 mmHg 78%
    10:00 +8°C° 0.2 mm 10 mps 738 mmHg 75%
    11:00 +9°C° 0.1 mm 10 mps 739 mmHg 68%
    12:00 +11°C° 0.1 mm 11 mps 739 mmHg 60%
    13:00 +11°C° 0.1 mm 11 mps 740 mmHg 53%
    14:00 +11°C° 0 mm 10 mps 740 mmHg 53%
    15:00 +11°C° 0 mm 10 mps 741 mmHg 53%
    16:00 +10°C° 0 mm 9 mps 742 mmHg 53%
    17:00 +9°C° 0.1 mm 8 mps 742 mmHg 55%
    18:00 +8°C° 0.1 mm 7 mps 743 mmHg 58%
    19:00 +7°C° 0.1 mm 5 mps 744 mmHg 61%
    20:00 +7°C° 0 mm 5 mps 744 mmHg 62%
    21:00 +7°C° 0 mm 5 mps 745 mmHg 63%
    22:00 +7°C° 0 mm 5 mps 746 mmHg 63%
    23:00 +6°C° 0 mm 5 mps 746 mmHg 66%

    25 September, Tuesday

    Time Temperature Precipitation Wind Pressure Humidity
    00:00 +6°C° 0 mm 5 mps 746 mmHg 68%
    01:00 +5°C° 0 mm 5 mps 747 mmHg 71%
    02:00 +5°C° 0 mm 5 mps 747 mmHg 73%
    03:00 +5°C° 0 mm 5 mps 748 mmHg 75%
    04:00 +3°C° 0 mm 5 mps 748 mmHg 77%
    05:00 +5°C° 0 mm 5 mps 749 mmHg 77%
    06:00 +5°C° 0 mm 5 mps 749 mmHg 77%
    07:00 +4°C° 0 mm 6 mps 750 mmHg 77%
    08:00 +5°C° 0 mm 6 mps 750 mmHg 68%
    09:00 +8°C° 0 mm 6 mps 751 mmHg 60%
    10:00 +9°C° 0 mm 7 mps 751 mmHg 51%
    11:00 +10°C° 0 mm 6 mps 751 mmHg 48%
    12:00 +10°C° 0 mm 6 mps 752 mmHg 44%
    13:00 +11°C° 0 mm 6 mps 752 mmHg 40%
    14:00 +11°C° 0 mm 6 mps 752 mmHg 41%
    15:00 +12°C° 0 mm 5 mps 752 mmHg 42%
    16:00 +12°C° 0 mm 5 mps 751 mmHg 44%
    17:00 +11°C° 0 mm 4 mps 752 mmHg 49%
    18:00 +8°C° 0 mm 4 mps 752 mmHg 54%
    19:00 +8°C° 0 mm 3 mps 752 mmHg 59%
    20:00 +8°C° 0 mm 3 mps 752 mmHg 61%
    21:00 +8°C° 0 mm 3 mps 752 mmHg 62%
    22:00 +7°C° 0 mm 3 mps 752 mmHg 64%
    23:00 +7°C° 0 mm 3 mps 752 mmHg 64%

    26 September, Wednesday

    Time Temperature Precipitation Wind Pressure Humidity
    00:00 +6°C° 0 mm 4 mps 752 mmHg 65%
    01:00 +6°C° 0 mm 4 mps 752 mmHg 66%
    02:00 +6°C° 0 mm 4 mps 752 mmHg 66%
    03:00 +5°C° 0 mm 4 mps 751 mmHg 67%
    04:00 +5°C° 0 mm 4 mps 751 mmHg 67%
    05:00 +6°C° 0 mm 4 mps 751 mmHg 65%
    06:00 +6°C° 0 mm 4 mps 751 mmHg 63%
    07:00 +6°C° 0 mm 4 mps 751 mmHg 62%
    08:00 +8°C° 0 mm 4 mps 751 mmHg 57%
    09:00 +10°C° 0 mm 4 mps 750 mmHg 53%
    10:00 +12°C° 0 mm 4 mps 750 mmHg 48%
    11:00 +13°C° 0 mm 5 mps 750 mmHg 45%
    12:00 +14°C° 0 mm 5 mps 749 mmHg 42%
    13:00 +15°C° 0 mm 5 mps 749 mmHg 39%
    14:00 +15°C° 0 mm 4 mps 749 mmHg 40%
    15:00 +15°C° 0 mm 4 mps 748 mmHg 42%
    16:00 +14°C° 0 mm 4 mps 748 mmHg 43%
    17:00 +13°C° 0 mm 3 mps 748 mmHg 47%
    18:00 +13°C° 0 mm 2 mps 748 mmHg 51%
    19:00 +12°C° 0 mm 2 mps 748 mmHg 55%
    20:00 +10°C° 0 mm 2 mps 748 mmHg 56%
    21:00 +10°C° 0 mm 2 mps 748 mmHg 57%
    22:00 +9°C° 0 mm 2 mps 748 mmHg 59%
    23:00 +9°C° 0 mm 2 mps 748 mmHg 59%
    Show more